Weather History for Seward, AK

Change the Weather History Date:

Sunday, November 18, 2012

  Actual Average Record
Temperature  
Mean Temperature 22 °F -  
Max Temperature 26 °F 34 °F 46 °F (1964)
Min Temperature 19 °F 26 °F 10 °F (2011)
Degree Days  
Heating Degree Days 42    
Moisture  
Dew Point 16 °F    
Average Humidity 74    
Maximum Humidity 80    
Minimum Humidity 71    
Precipitation  
Precipitation 0.00 in - - ()
Sea Level Pressure  
Sea Level Pressure 29.08 in    
Wind  
Wind Speed 18 mph (NNE)    
Max Wind Speed 22 mph    
Max Gust Speed 33 mph    
Visibility 9 miles    
Events Snow    
Averages and records for this station are not official NWS values.
T = Trace of Precipitation, MM = Missing Value Source: NWS Daily Summary

Daily Weather History Graph

Daily Weather History Graph

Search for Another Location

Airport:

Trip Planner

Search our weather history database for the weather conditions in past years. The results will help you decide how hot, cold, wet, or windy it might be!

Date:

Astronomy

Nov. 18, 2012 Rise Set
Actual Time 9:05 AM AKST 4:19 PM AKST
Civil Twilight 8:15 AM AKST 5:10 PM AKST
Nautical Twilight 7:22 AM AKST 6:02 PM AKST
Astronomical Twilight 6:32 AM AKST 6:52 PM AKST
Moon 1:17 PM AKST (11/18) 10:18 PM AKST (11/18)
Length of Visible Light 8h 54m
Length of Day
7h 13m
Waxing Crescent, 31% of the Moon is Illuminated
Nov 18
Waxing Crescent
Nov 20
First Quarter
Nov 28
Full
Dec 6
Last Quarter
Dec 12
New

Hourly Weather History & Observations

Time (AKST) Temp. Windchill Dew Point Humidity Pressure Visibility Wind Dir Wind Speed Gust Speed Precip Events Conditions
12:53 AM 19.9 °F 3.9 °F 12.0 °F 71% 28.98 in 10.0 mi North 20.7 mph 33.4 mph N/A   Overcast
1:53 AM 19.9 °F 4.8 °F 12.0 °F 71% 29.00 in 10.0 mi NNE 18.4 mph 27.6 mph N/A   Overcast
2:53 AM 19.9 °F 3.9 °F 12.9 °F 74% 29.00 in 2.5 mi NNE 20.7 mph 31.1 mph 0.00 in Snow Light Snow
3:08 AM 19.4 °F 2.8 °F 14.0 °F 80% 29.00 in 3.0 mi NNE 21.9 mph 29.9 mph 0.00 in Snow Light Snow
3:53 AM 19.9 °F 3.9 °F 12.9 °F 74% 29.00 in 10.0 mi NNE 20.7 mph 27.6 mph 0.00 in   Overcast
4:53 AM 19.9 °F 4.8 °F 14.0 °F 78% 29.02 in 6.0 mi NNE 18.4 mph 26.5 mph 0.00 in Snow Light Snow
5:53 AM 19.9 °F 6.2 °F 14.0 °F 78% 29.03 in 10.0 mi NNE 15.0 mph 28.8 mph 0.00 in   Overcast
6:53 AM 19.9 °F 6.7 °F 12.9 °F 74% 29.03 in 10.0 mi North 13.8 mph 25.3 mph N/A   Overcast
7:53 AM 21.0 °F 6.2 °F 14.0 °F 74% 29.03 in 10.0 mi NNE 18.4 mph 26.5 mph N/A   Mostly Cloudy
8:53 AM 21.0 °F 7.6 °F 14.0 °F 74% 29.04 in 10.0 mi North 15.0 mph 27.6 mph N/A   Mostly Cloudy
9:53 AM 21.9 °F 9.8 °F 15.1 °F 75% 29.06 in 7.0 mi NNE 12.7 mph 25.3 mph 0.00 in Snow Light Snow
10:01 AM 21.2 °F 7.8 °F 15.8 °F 80% 29.06 in 1.8 mi NNE 15.0 mph 21.9 mph 0.00 in Snow Light Snow
10:10 AM 21.2 °F 7.3 °F 15.8 °F 80% 29.06 in 3.0 mi North 16.1 mph 24.2 mph 0.00 in Snow Light Snow
10:53 AM 21.9 °F 6.9 °F 16.0 °F 78% 29.06 in 9.0 mi NNE 19.6 mph 29.9 mph 0.00 in   Overcast
11:53 AM 24.1 °F 9.4 °F 17.1 °F 75% 29.06 in 10.0 mi North 20.7 mph 28.8 mph 0.00 in   Overcast
12:53 PM 25.0 °F 13.6 °F 17.1 °F 72% 29.09 in 10.0 mi NNE 12.7 mph 23.0 mph 0.00 in   Overcast
1:11 PM 24.8 °F 13.4 °F 17.6 °F 74% 29.09 in 10.0 mi North 12.7 mph 19.6 mph N/A   Overcast
1:23 PM 24.8 °F 12.9 °F 17.6 °F 74% 29.09 in 10.0 mi North 13.8 mph 21.9 mph N/A   Overcast
1:53 PM 25.0 °F 12.2 °F 18.0 °F 75% 29.09 in 10.0 mi North 16.1 mph 21.9 mph N/A   Overcast
2:53 PM 25.0 °F 11.7 °F 18.0 °F 75% 29.09 in 10.0 mi NNE 17.3 mph 23.0 mph N/A   Mostly Cloudy
3:53 PM 26.1 °F 13.1 °F 18.0 °F 71% 29.11 in 10.0 mi North 17.3 mph 23.0 mph N/A   Overcast
4:53 PM 25.0 °F 11.7 °F 17.1 °F 72% 29.13 in 10.0 mi North 17.3 mph 23.0 mph N/A   Scattered Clouds
5:53 PM 24.1 °F 10.6 °F 17.1 °F 75% 29.15 in 10.0 mi North 17.3 mph - N/A   Clear
6:53 PM 24.1 °F 10.1 °F 17.1 °F 75% 29.16 in 10.0 mi North 18.4 mph 24.2 mph N/A   Mostly Cloudy
7:53 PM 25.0 °F 11.7 °F 17.1 °F 72% 29.17 in 10.0 mi North 17.3 mph 24.2 mph N/A   Overcast
8:53 PM 25.0 °F 10.9 °F 17.1 °F 72% 29.18 in 10.0 mi North 19.6 mph 26.5 mph N/A   Overcast
9:53 PM 26.1 °F 13.6 °F 18.0 °F 71% 29.19 in 10.0 mi North 16.1 mph 24.2 mph N/A   Scattered Clouds
10:53 PM 24.1 °F 11.0 °F 17.1 °F 75% 29.20 in 10.0 mi North 16.1 mph 25.3 mph N/A   Partly Cloudy
11:53 PM 24.1 °F 10.6 °F 16.0 °F 71% 29.20 in 10.0 mi North 17.3 mph 26.5 mph N/A   Mostly Cloudy